Flag for Canada Weather past 2 weeks in Ottawa, Ontario, Canada

Now
50 °F

Overcast.


Feels Like: 44 °F
Forecast: 48 / 58 °F
Wind: 16 mph from Northwest

Location: Ottawa Int'L. Ont.

Current Time: Sep 22, 2014 at 2:45:55 PM

Latest Report: Sep 22, 2014 at 2:00 PM


Visibility: 15 mi

Pressure: 29.94 "Hg

Humidity: 62%

Dew point: 37 °F

Location of OttawaLocation

Historic Weather in Ottawa — Graph

°F

Ottawa temperature yesterday

Maximum temperature yesterday: 73 °F (at 5:00 PM)
Minimum temperature yesterday: 52 °F (at 11:00 PM)
Average temperature yesterday: 64 °F

Past Weeks' High & Low Weather Summary

 TemperatureHumidityPressure
High75 °F (Sep 8, 2:00 PM)100% (Sep 8, 4:00 AM)30.42 "Hg (Sep 8, 4:00 AM)
Low34 °F (Sep 19, 5:00 AM)38% (Sep 19, 4:00 PM)29.46 "Hg (Sep 21, 5:00 PM)
Average55 °F78%30.06 "Hg
* Reported Sep 7 1:00 PM — Sep 22 1:00 PM, Ottawa, Weather by CustomWeather, © 2014

Note: Actual official high and low records may vary slightly from our data, if they occured in-between our weather recording intervals... More about our weather records

Advertising

Ottawa weather history for previous 24 hours

 ConditionsComfort  
Time TempWeatherWind HumidityBarometerVisibility
1:00 PM
Sep 22
48 °FOvercast.17 mph66%29.93 "Hg15 mi
12:00 PM48 °FPartly sunny.22 mph71%29.90 "Hg15 mi
11:00 AM48 °FPartly sunny.23 mph71%29.89 "Hg15 mi
10:00 AM46 °FPartly sunny.20 mph76%29.87 "Hg15 mi
9:00 AM46 °FPartly sunny.18 mph76%29.83 "Hg10 mi
8:00 AM46 °FPartly sunny.18 mph82%29.79 "Hg15 mi
7:00 AM48 °FPassing clouds.23 mph82%29.76 "Hg10 mi
6:00 AM46 °FMostly cloudy.17 mph93%29.72 "Hg10 mi
5:00 AM46 °FDrizzle. Mostly cloudy.18 mph93%29.68 "Hg10 mi
4:00 AM48 °FOvercast.20 mph82%29.65 "Hg10 mi
3:00 AM48 °FMostly cloudy.16 mph87%29.64 "Hg10 mi
2:00 AM48 °FOvercast.16 mph94%29.62 "Hg10 mi
1:00 AM50 °FPartly cloudy.21 mph88%29.61 "Hg10 mi
12:00 AM50 °FDrizzle. Fog.14 mph94%29.60 "Hg3 mi
11:00 PM
Sep 21
52 °FDrizzle. Fog.16 mph94%29.59 "Hg4 mi
10:47 PM54 °FDrizzle. Fog.16 mph88%29.59 "Hg4 mi
10:00 PM54 °FLow clouds.13 mph100%29.59 "Hg15 mi
9:00 PM55 °FDrizzle. Low clouds.16 mph94%29.58 "Hg8 mi
8:00 PM57 °FLow clouds.13 mph94%29.57 "Hg15 mi
7:00 PM68 °FBroken clouds.20 mph78%29.52 "Hg15 mi
6:00 PM72 °FScattered clouds.9 mph73%29.48 "Hg15 mi
5:00 PM73 °FScattered clouds.12 mph74%29.46 "Hg15 mi
4:00 PM72 °FScattered clouds.9 mph88%29.48 "Hg15 mi
3:00 PM68 °FBroken clouds.12 mph94%29.50 "Hg15 mi
2:00 PM64 °FLight rain. More clouds than sun.10 mph94%29.54 "Hg10 mi
Weather by CustomWeather, © 2014

See weather overviewHow to use our weather pages